When you browse on this site, cookies collect data to enhance your experience and personalize the content and advertising you see.
Visit our Privacy Policy to learn more. By continuing to use the site, you agree to this use of cookies and data.
  • In Hungary
  • List of Countries
  • For 7 days
  • Water Temperature
  • Weather Map
  • News
  • Weather Widgets
  • user-avatar
    Login

    Hourly Weather Jeddah

    Today, 17 November, Sunday

    Time Temperature Precipitation Wind Pressure Humidity
    00:00 +29°C° 0.3 mm 3 mps 755 mmHg 64%
    01:00 +29°C° 0 mm 3 mps 755 mmHg 64%
    02:00 +29°C° 0 mm 3 mps 754 mmHg 64%
    03:00 +29°C° 0 mm 3 mps 754 mmHg 64%
    04:00 +29°C° 0 mm 3 mps 754 mmHg 64%
    05:00 +28°C° 0 mm 3 mps 754 mmHg 64%
    06:00 +28°C° 0 mm 3 mps 754 mmHg 65%
    07:00 +29°C° 0 mm 3 mps 755 mmHg 60%
    08:00 +30°C° 0 mm 3 mps 755 mmHg 56%
    09:00 +30°C° 0 mm 2 mps 755 mmHg 52%
    10:00 +31°C° 0.1 mm 3 mps 755 mmHg 48%
    11:00 +33°C° 0.1 mm 3 mps 755 mmHg 45%
    12:00 +34°C° 0.1 mm 3 mps 755 mmHg 42%
    13:00 +34°C° 0.2 mm 3 mps 755 mmHg 44%
    14:00 +33°C° 0.2 mm 4 mps 754 mmHg 46%
    15:00 +33°C° 0.2 mm 4 mps 754 mmHg 49%
    16:00 +33°C° 0.1 mm 3 mps 754 mmHg 50%
    17:00 +31°C° 0.1 mm 3 mps 755 mmHg 51%
    18:00 +31°C° 0.1 mm 2 mps 755 mmHg 53%
    19:00 +31°C° 0 mm 2 mps 755 mmHg 54%
    20:00 +30°C° 0 mm 2 mps 756 mmHg 55%
    21:00 +30°C° 0 mm 1 mps 756 mmHg 56%
    22:00 +30°C° 0 mm 1 mps 756 mmHg 56%
    23:00 +30°C° 0 mm 2 mps 756 mmHg 57%

    Tomorrow, 18 November, Monday

    Time Temperature Precipitation Wind Pressure Humidity
    00:00 +30°C° 0 mm 2 mps 756 mmHg 57%
    01:00 +29°C° 0 mm 2 mps 756 mmHg 58%
    02:00 +29°C° 0 mm 2 mps 755 mmHg 58%
    03:00 +29°C° 0 mm 3 mps 755 mmHg 58%
    04:00 +29°C° 0 mm 3 mps 755 mmHg 58%
    05:00 +28°C° 0 mm 3 mps 755 mmHg 59%
    06:00 +28°C° 0 mm 3 mps 756 mmHg 59%
    07:00 +29°C° 0 mm 2 mps 756 mmHg 57%
    08:00 +29°C° 0 mm 2 mps 756 mmHg 56%
    09:00 +30°C° 0 mm 1 mps 757 mmHg 54%
    10:00 +31°C° 0 mm 2 mps 757 mmHg 51%
    11:00 +33°C° 0 mm 3 mps 756 mmHg 49%
    12:00 +34°C° 0 mm 3 mps 756 mmHg 46%
    13:00 +34°C° 0.1 mm 3 mps 756 mmHg 48%
    14:00 +33°C° 0.1 mm 3 mps 755 mmHg 50%
    15:00 +33°C° 0.1 mm 4 mps 755 mmHg 52%
    16:00 +33°C° 0 mm 3 mps 755 mmHg 55%
    17:00 +31°C° 0 mm 3 mps 756 mmHg 57%
    18:00 +31°C° 0 mm 3 mps 756 mmHg 59%
    19:00 +30°C° 0.3 mm 3 mps 756 mmHg 61%
    20:00 +30°C° 0.3 mm 3 mps 756 mmHg 62%
    21:00 +29°C° 0.3 mm 3 mps 757 mmHg 64%
    22:00 +29°C° 0.1 mm 3 mps 757 mmHg 63%
    23:00 +29°C° 0.1 mm 3 mps 756 mmHg 62%

    Day after tomorrow, 19 November, Tuesday

    Time Temperature Precipitation Wind Pressure Humidity
    00:00 +29°C° 0.1 mm 3 mps 756 mmHg 62%
    01:00 +29°C° 0 mm 3 mps 756 mmHg 61%
    02:00 +29°C° 0 mm 3 mps 756 mmHg 61%
    03:00 +28°C° 0 mm 2 mps 755 mmHg 61%
    04:00 +28°C° 0 mm 2 mps 756 mmHg 61%
    05:00 +28°C° 0 mm 2 mps 756 mmHg 61%
    06:00 +28°C° 0 mm 2 mps 756 mmHg 61%
    07:00 +29°C° 0.1 mm 2 mps 757 mmHg 59%
    08:00 +29°C° 0.1 mm 2 mps 757 mmHg 56%
    09:00 +30°C° 0.1 mm 3 mps 757 mmHg 54%
    10:00 +31°C° 0 mm 3 mps 757 mmHg 51%
    11:00 +31°C° 0 mm 3 mps 757 mmHg 49%
    12:00 +33°C° 0 mm 3 mps 756 mmHg 47%
    13:00 +33°C° 0 mm 4 mps 756 mmHg 47%
    14:00 +33°C° 0 mm 5 mps 755 mmHg 47%
    15:00 +34°C° 0 mm 6 mps 755 mmHg 47%
    16:00 +33°C° 0 mm 6 mps 755 mmHg 50%
    17:00 +32°C° 0 mm 6 mps 755 mmHg 53%
    18:00 +30°C° 0 mm 6 mps 756 mmHg 56%
    19:00 +30°C° 0.1 mm 6 mps 756 mmHg 58%
    20:00 +30°C° 0.1 mm 5 mps 756 mmHg 60%
    21:00 +29°C° 0.1 mm 5 mps 757 mmHg 62%
    22:00 +29°C° 0.1 mm 5 mps 756 mmHg 61%
    23:00 +29°C° 0.1 mm 4 mps 756 mmHg 61%

    20 November, Wednesday

    Time Temperature Precipitation Wind Pressure Humidity
    00:00 +29°C° 0.1 mm 4 mps 756 mmHg 61%
    01:00 +28°C° 0.1 mm 4 mps 756 mmHg 59%
    02:00 +28°C° 0.1 mm 4 mps 756 mmHg 58%
    03:00 +28°C° 0.1 mm 4 mps 756 mmHg 56%
    04:00 +28°C° 0.1 mm 5 mps 756 mmHg 54%
    05:00 +28°C° 0.1 mm 5 mps 756 mmHg 52%
    06:00 +28°C° 0.1 mm 6 mps 756 mmHg 49%
    07:00 +28°C° 0 mm 6 mps 756 mmHg 47%
    08:00 +29°C° 0 mm 6 mps 756 mmHg 45%
    09:00 +30°C° 0 mm 6 mps 757 mmHg 43%
    10:00 +32°C° 0 mm 6 mps 756 mmHg 39%
    11:00 +33°C° 0 mm 5 mps 756 mmHg 35%
    12:00 +35°C° 0 mm 4 mps 755 mmHg 32%
    13:00 +35°C° 0 mm 4 mps 755 mmHg 31%
    14:00 +36°C° 0 mm 5 mps 755 mmHg 29%
    15:00 +36°C° 0 mm 6 mps 754 mmHg 28%
    16:00 +35°C° 0 mm 6 mps 754 mmHg 33%
    17:00 +34°C° 0 mm 7 mps 754 mmHg 39%
    18:00 +33°C° 0 mm 7 mps 755 mmHg 44%
    19:00 +32°C° 0 mm 7 mps 755 mmHg 47%
    20:00 +30°C° 0 mm 7 mps 755 mmHg 50%
    21:00 +30°C° 0 mm 6 mps 755 mmHg 53%
    22:00 +30°C° 0 mm 6 mps 755 mmHg 50%
    23:00 +30°C° 0 mm 6 mps 755 mmHg 47%

    21 November, Thursday

    Time Temperature Precipitation Wind Pressure Humidity
    00:00 +30°C° 0 mm 6 mps 755 mmHg 44%
    01:00 +30°C° 0 mm 6 mps 755 mmHg 45%
    02:00 +29°C° 0 mm 6 mps 755 mmHg 47%
    03:00 +29°C° 0 mm 6 mps 755 mmHg 48%
    04:00 +29°C° 0 mm 6 mps 755 mmHg 48%
    05:00 +28°C° 0 mm 6 mps 755 mmHg 47%
    06:00 +28°C° 0 mm 6 mps 755 mmHg 47%
    07:00 +29°C° 0 mm 6 mps 755 mmHg 44%
    08:00 +30°C° 0 mm 6 mps 756 mmHg 41%
    09:00 +32°C° 0 mm 5 mps 756 mmHg 39%
    10:00 +33°C° 0 mm 4 mps 756 mmHg 37%
    11:00 +34°C° 0 mm 2 mps 755 mmHg 35%
    12:00 +34°C° 0 mm 1 mps 755 mmHg 33%
    13:00 +35°C° 0 mm 2 mps 755 mmHg 34%
    14:00 +35°C° 0 mm 3 mps 754 mmHg 35%
    15:00 +35°C° 0 mm 4 mps 754 mmHg 35%
    16:00 +35°C° 0 mm 4 mps 754 mmHg 38%
    17:00 +34°C° 0 mm 4 mps 754 mmHg 40%
    18:00 +33°C° 0 mm 4 mps 754 mmHg 42%
    19:00 +33°C° 0 mm 4 mps 754 mmHg 43%
    20:00 +31°C° 0 mm 3 mps 755 mmHg 44%
    21:00 +31°C° 0 mm 3 mps 755 mmHg 45%
    22:00 +31°C° 0 mm 2 mps 755 mmHg 46%
    23:00 +31°C° 0 mm 2 mps 755 mmHg 46%

    22 November, Friday

    Time Temperature Precipitation Wind Pressure Humidity
    00:00 +30°C° 0 mm 1 mps 755 mmHg 46%
    01:00 +30°C° 0 mm 2 mps 755 mmHg 46%
    02:00 +30°C° 0 mm 2 mps 755 mmHg 45%
    03:00 +29°C° 0 mm 3 mps 755 mmHg 45%
    04:00 +29°C° 0 mm 3 mps 755 mmHg 46%
    05:00 +29°C° 0 mm 3 mps 755 mmHg 47%
    06:00 +29°C° 0 mm 3 mps 755 mmHg 48%
    07:00 +29°C° 0 mm 3 mps 756 mmHg 46%
    08:00 +30°C° 0 mm 2 mps 756 mmHg 44%
    09:00 +31°C° 0 mm 2 mps 757 mmHg 41%
    10:00 +33°C° 0 mm 3 mps 756 mmHg 41%
    11:00 +34°C° 0 mm 3 mps 756 mmHg 41%
    12:00 +35°C° 0 mm 3 mps 756 mmHg 41%
    13:00 +35°C° 0.1 mm 4 mps 755 mmHg 43%
    14:00 +35°C° 0.1 mm 5 mps 755 mmHg 45%
    15:00 +35°C° 0.1 mm 6 mps 755 mmHg 47%
    16:00 +34°C° 0.1 mm 5 mps 755 mmHg 51%
    17:00 +33°C° 0.1 mm 5 mps 755 mmHg 54%
    18:00 +32°C° 0.1 mm 4 mps 755 mmHg 58%
    19:00 +32°C° 1.2 mm 4 mps 755 mmHg 60%
    20:00 +30°C° 1.2 mm 3 mps 756 mmHg 62%
    21:00 +30°C° 1.2 mm 2 mps 756 mmHg 64%
    22:00 +30°C° 0.7 mm 3 mps 756 mmHg 64%
    23:00 +29°C° 0.7 mm 3 mps 756 mmHg 63%
    Show more